Location: Deerlodge Park Campground
(40.4466°N, 108.5129°W)
Time: 17:37:29
(UTC-07:00)

Hubble Space Telescope - Visible Passes

Search period start: 22 January 2019 00:00
Search period end: 01 February 2019 00:00
Orbit: 537 x 540 km, 28.5° (Epoch: 22 January)

Date Brightness Start Highest point End Pass type
(mag) Time Alt. Az. Time Alt. Az. Time Alt. Az.
22 Jan 3.2 06:09:44 10° SW 06:11:50 14° S 06:13:57 10° SSE visible
23 Jan 3.2 05:59:36 10° SW 06:01:16 13° S 06:03:03 10° SSE visible
24 Jan 3.2 05:49:45 11° SSW 05:50:40 11° SSW 05:51:57 10° S visible
